Weather History for K06D - December, 2012

Change the Weather History Date:

Saturday, December 15, 2012

  Actual Average Record
Temperature  
Mean Temperature 13 °F -  
Max Temperature 23 °F - - ()
Min Temperature 3 °F - - ()
Degree Days  
Heating Degree Days 52    
Moisture  
Dew Point 14 °F    
Average Humidity 98    
Maximum Humidity 100    
Minimum Humidity 85    
Precipitation  
Precipitation 0.06 in - - ()
Sea Level Pressure  
Sea Level Pressure 29.74 in    
Wind  
Wind Speed 13 mph (NW)    
Max Wind Speed 25 mph    
Max Gust Speed 40 mph    
Visibility 2 miles    
Events Fog , Rain , Snow    
T = Trace of Precipitation, MM = Missing Value Source: NWS Daily Summary

Daily Weather History Graph

Daily Weather History Graph

Search for Another Location

Airport or City:

Trip Planner

Search our weather history database for the weather conditions in past years. The results will help you decide how hot, cold, wet, or windy it might be!

Date:

Astronomy

Dec. 15, 2012 Rise Set
Actual Time 8:25 AM CST 4:41 PM CST
Civil Twilight 7:48 AM CST 5:19 PM CST
Nautical Twilight 7:08 AM CST 5:59 PM CST
Astronomical Twilight 6:29 AM CST 6:38 PM CST
Moon 10:10 AM CST (12/15) 7:59 PM CST (12/15)
Length of Visible Light 9h 30m
Length of Day
8h 16m
Waxing Crescent, 8% of the Moon is Illuminated
Dec 15
Waxing Crescent
Dec 19
First Quarter
Dec 28
Full
Jan 4
Last Quarter
Jan 11
New

Hourly Weather History & Observations

Time (CST) Temp. Windchill Dew Point Humidity Pressure Visibility Wind Dir Wind Speed Gust Speed Precip Events Conditions
12:15 AM 12.2 °F - 12.2 °F 100% - - North - - N/A   Overcast
12:35 AM 12.2 °F - 12.2 °F 100% - - North - - N/A   Overcast
12:55 AM 10.4 °F -6.6 °F 10.4 °F 100% - - SW 16.1 mph 40.3 mph N/A   Overcast
1:15 AM 10.4 °F - 10.4 °F 100% - - North - - N/A   Overcast
1:35 AM 10.4 °F - 10.4 °F 100% - - North - - N/A   Mostly Cloudy
1:55 AM 8.6 °F - 8.6 °F 100% - - North - - N/A   Unknown
2:15 AM 8.6 °F - 8.6 °F 100% - - North - - N/A   Unknown
2:35 AM 6.8 °F - 5.0 °F 92% - - North - - N/A   Unknown
2:55 AM 6.8 °F - 6.8 °F 100% - - North - - N/A   Unknown
3:15 AM 6.8 °F - 5.0 °F 92% - - North - - N/A   Unknown
3:35 AM 6.8 °F - 5.0 °F 92% - - North - - N/A   Unknown
3:55 AM 5.0 °F - 3.2 °F 92% - - North - - N/A   Unknown
4:15 AM 6.8 °F - 6.8 °F 100% - - North - - N/A   Unknown
4:35 AM 3.2 °F -6.2 °F 1.4 °F 92% - - South 4.6 mph - N/A   Unknown
4:55 AM 5.0 °F -8.1 °F 1.4 °F 85% - - South 8.1 mph - N/A   Unknown
5:15 AM 5.0 °F -5.6 °F 3.2 °F 92% - - SW 5.8 mph - N/A   Unknown
5:35 AM 5.0 °F -4.1 °F 1.4 °F 85% - - South 4.6 mph - N/A   Unknown
5:55 AM 5.0 °F -8.1 °F 3.2 °F 92% - - South 8.1 mph - N/A   Unknown
6:15 AM 5.0 °F -5.6 °F 1.4 °F 85% - - SSW 5.8 mph - N/A   Unknown
6:35 AM 3.2 °F -7.8 °F 1.4 °F 92% - - SW 5.8 mph - N/A   Unknown
6:55 AM 8.6 °F -1.3 °F 6.8 °F 92% - - West 5.8 mph - N/A   Unknown
7:15 AM 8.6 °F -4.7 °F 8.6 °F 100% - - West 9.2 mph - N/A   Unknown
7:35 AM 10.4 °F -3.3 °F 8.6 °F 92% - - West 10.4 mph - N/A   Unknown
7:55 AM 10.4 °F -4.8 °F 10.4 °F 100% - - West 12.7 mph - N/A   Unknown
8:15 AM 10.4 °F -2.4 °F 10.4 °F 100% - - West 9.2 mph - N/A   Unknown
8:35 AM 10.4 °F -3.3 °F 10.4 °F 100% - - WNW 10.4 mph - N/A   Unknown
8:55 AM 10.4 °F -2.4 °F 10.4 °F 100% - - WNW 9.2 mph - N/A   Unknown
9:15 AM 8.6 °F -3.7 °F 6.8 °F 92% - - NW 8.1 mph - N/A   Unknown
9:35 AM 8.6 °F -3.7 °F 6.8 °F 92% - - NNW 8.1 mph - N/A   Unknown
9:55 AM 12.2 °F -0.2 °F 12.2 °F 100% - - NW 9.2 mph - N/A   Unknown
10:15 AM 15.8 °F 2.7 °F 15.8 °F 100% - - NW 11.5 mph - N/A   Unknown
10:35 AM 17.6 °F 3.7 °F 17.6 °F 100% - - NNW 13.8 mph - N/A   Unknown
10:55 AM 17.6 °F 5.7 °F 17.6 °F 100% - - NNW 10.4 mph - N/A   Unknown
11:15 AM 17.6 °F 3.2 °F 17.6 °F 100% - - NNW 15.0 mph - N/A   Unknown
11:35 AM 15.8 °F -0.2 °F 15.8 °F 100% - - NNW 17.3 mph - N/A   Unknown
11:55 AM 15.8 °F 2.1 °F 15.8 °F 100% - - NW 12.7 mph - N/A   Unknown
12:15 PM 17.6 °F 6.4 °F 17.6 °F 100% - - NNW 9.2 mph - N/A   Unknown
12:35 PM 17.6 °F 1.7 °F 17.6 °F 100% - - NNW 18.4 mph - N/A   Unknown
12:55 PM 19.4 °F 3.2 °F 19.4 °F 100% - - NNW 20.7 mph - N/A   Unknown
1:15 PM 19.4 °F 3.6 °F 19.4 °F 100% - - NNW 19.6 mph - N/A   Unknown
1:35 PM 21.2 °F 4.9 °F 21.2 °F 100% - - NNW 23.0 mph 26.5 mph N/A   Unknown
1:55 PM 19.4 °F 2.1 °F 19.4 °F 100% - - NNW 24.2 mph 28.8 mph N/A   Unknown
2:15 PM 17.6 °F 0.1 °F 17.6 °F 100% - - NW 23.0 mph - N/A   Unknown
2:35 PM 19.4 °F 2.8 °F 19.4 °F 100% - - NW 21.9 mph - N/A   Mostly Cloudy
2:55 PM 19.4 °F 2.8 °F 19.4 °F 100% - - NW 21.9 mph - N/A   Overcast
3:15 PM 21.2 °F 5.6 °F 21.2 °F 100% - - NNW 20.7 mph 25.3 mph N/A   Overcast
3:35 PM 21.2 °F 5.6 °F 21.2 °F 100% - - NNW 20.7 mph - N/A   Overcast
3:55 PM 23.0 °F 7.6 °F 23.0 °F 100% - - NNW 21.9 mph 26.5 mph N/A   Overcast
4:15 PM 23.0 °F 6.9 °F 23.0 °F 100% 29.71 in 1.5 mi NNW 24.2 mph 29.9 mph N/A Rain Light Freezing Rain
4:35 PM 21.2 °F 4.2 °F 21.2 °F 100% 29.70 in 1.0 mi NNW 25.3 mph 28.8 mph N/A Rain Light Freezing Rain
4:55 PM 19.4 °F 3.2 °F 19.4 °F 100% 29.71 in 1.0 mi NNW 20.7 mph - N/A Rain Light Freezing Rain
5:15 PM 19.4 °F 3.6 °F 19.4 °F 100% 29.71 in 3.0 mi NNW 19.6 mph 23.0 mph N/A   Overcast
5:35 PM 19.4 °F 3.6 °F 19.4 °F 100% 29.71 in 2.5 mi NNW 19.6 mph - N/A   Overcast
5:55 PM 19.4 °F 2.8 °F 19.4 °F 100% 29.72 in 2.5 mi NNW 21.9 mph - N/A Snow Light Snow
6:15 PM 19.4 °F 3.2 °F 19.4 °F 100% 29.72 in 2.5 mi NNW 20.7 mph - N/A   Overcast
6:35 PM 17.6 °F 0.5 °F 17.6 °F 100% 29.73 in 3.0 mi NW 21.9 mph 26.5 mph N/A   Overcast
6:55 PM 17.6 °F 2.2 °F 17.6 °F 100% 29.74 in 1.8 mi NW 17.3 mph 24.2 mph N/A Snow Light Snow
7:15 PM 17.6 °F 1.7 °F 17.6 °F 100% 29.74 in 2.0 mi NNW 18.4 mph 24.2 mph N/A Snow Light Snow
7:35 PM 19.4 °F 4.1 °F 19.4 °F 100% 29.74 in 1.8 mi NNW 18.4 mph - N/A Snow Light Snow
7:55 PM 17.6 °F 1.3 °F 17.6 °F 100% 29.74 in 1.8 mi NNW 19.6 mph - N/A   Overcast
8:15 PM 17.6 °F 3.7 °F 17.6 °F 100% 29.75 in 2.0 mi NNW 13.8 mph - N/A Rain Light Freezing Rain
8:35 PM 17.6 °F 3.2 °F 17.6 °F 100% 29.75 in 2.5 mi NNW 15.0 mph - N/A   Overcast
8:55 PM 17.6 °F 1.3 °F 17.6 °F 100% 29.75 in 1.8 mi NNW 19.6 mph - N/A Snow Light Snow
9:15 PM 17.6 °F 1.7 °F 17.6 °F 100% 29.75 in 1.0 mi NNW 18.4 mph 23.0 mph N/A Snow Light Snow
9:35 PM 15.8 °F -0.2 °F 15.8 °F 100% 29.76 in 1.0 mi North 17.3 mph - N/A Snow Light Snow
9:55 PM 15.8 °F 0.9 °F 15.8 °F 100% 29.76 in 1.2 mi North 15.0 mph - 0.02 in Snow Light Snow
10:15 PM 15.8 °F 1.4 °F 15.8 °F 100% 29.77 in 0.8 mi North 13.8 mph - 0.01 in Snow Light Snow
10:35 PM 15.8 °F 0.9 °F 15.8 °F 100% 29.77 in 1.0 mi NNW 15.0 mph - 0.02 in   Overcast
10:55 PM 15.8 °F 2.7 °F 15.8 °F 100% 29.77 in 1.5 mi NNW 11.5 mph - 0.03 in Snow Light Snow
11:15 PM 15.8 °F 3.4 °F 15.8 °F 100% 29.78 in 1.2 mi North 10.4 mph - 0.01 in Snow Light Snow
11:35 PM 15.8 °F 4.2 °F 15.8 °F 100% 29.78 in 0.5 mi NNW 9.2 mph - 0.01 in Fog Light Freezing Fog
11:55 PM 15.8 °F 2.7 °F 15.8 °F 100% 29.78 in 0.5 mi NNW 11.5 mph - 0.01 in Fog Light Freezing Fog